Tracking 30466 objects as of 17-May-2025
HD Live streaming from Space Station
objects crossing your sky now

KAISTSAT 4

Track KAISTSAT 4 now!
10-day predictions
KAISTSAT 4 is classified as:


NORAD ID: 27945
Int'l Code: 2003-042G
Perigee: 667.9 km
Apogee: 685.3 km
Inclination: 98.3 °
Period: 98.1 minutes
Semi major axis: 7047 km
RCS: 0.503 m2 (medium)
Launch date: September 27, 2003
Source: South Korea (SKOR)
Launch site: PLESETSK MISSILE AND SPACE COMPLEX (PKMTR)

Turkey's first earth observation satellite; part of international Disaster Monitoring Constellation (DMC).
Your satellite tracking list
Your tracking list is empty




NASA's NSSDC Master Catalog

Two Line Element Set (TLE):
1 27945U 03042G   25136.38585986  .00000477  00000-0  93455-4 0  9993
2 27945  98.3407 291.8875 0012374 140.1082 220.1033 14.67372294155831
Source of the keplerian elements: AFSPC